Location: Bessat
(45.8735°N, 1.9924°E)
Time: 03:33:26
(UTC+00:00)

USA 308 - Pass Details

Date: 11 May 2021
Orbit: 568 x 576 km, 54.0° (Epoch: 10 May)

Event Time Altitude Azimuth Distance (km) Brightness Sun altitude
Rises 21:20:41 0° 303° (WNW) 2,785 7.7 -17.8°
Reaches altitude 10° 21:22:57 10° 305° (NW) 1,886 6.6 -18.0°
Maximum altitude 21:27:15 80° 32° (NNE) 589 2.9 -18.5°
Enters shadow 21:28:44 40° 113° (ESE) 855 3.3 -18.6°
